Fort Smith, AR

1:10 PM CDT on April 25, 2017 (GMT -0500)
Fort Smith Regional

Weather History for KFSM - October, 2012

Change the Weather History Date:

Thursday, October 11, 2012

  Actual Average Record
Temperature  
Mean Temperature 66 °F 64 °F  
Max Temperature 74 °F 76 °F 96 °F (1963)
Min Temperature 57 °F 52 °F 36 °F (1932)
Degree Days  
Heating Degree Days 0 3  
Month to date heating degree days 60 28  
Since 1 July heating degree days 60 45  
Cooling Degree Days 1 2  
Month to date cooling degree days 20 38  
Year to date cooling degree days 2812 2016  
Growing Degree Days 15 (Base 50)    
Moisture  
Dew Point 50 °F    
Average Humidity 59    
Maximum Humidity 78    
Minimum Humidity 40    
Precipitation  
Precipitation 0.07 in 0.13 in 1.75 in (1898)
Month to date precipitation 0.33 1.45  
Year to date precipitation 28.58 34.86  
Sea Level Pressure  
Sea Level Pressure 30.14 in    
Wind  
Wind Speed 8 mph (ENE)    
Max Wind Speed 14 mph    
Max Gust Speed 17 mph    
Visibility 10 miles    
Events Rain    
T = Trace of Precipitation, MM = Missing Value Source: NWS Daily Summary

Daily Weather History Graph

Daily Weather History Graph

Search for Another Location

Airport or City:

Trip Planner

Search our weather history database for the weather conditions in past years. The results will help you decide how hot, cold, wet, or windy it might be!

Date:

Astronomy

Oct. 11, 2012 Rise Set
Actual Time 7:20 AM CDT 6:46 PM CDT
Civil Twilight 6:55 AM CDT 7:12 PM CDT
Nautical Twilight 6:25 AM CDT 7:41 PM CDT
Astronomical Twilight 5:56 AM CDT 8:11 PM CDT
Moon 3:08 AM CDT (10/11) 4:16 PM CDT (10/11)
Length of Visible Light 12h 17m
Length of Day
11h 26m
Waning Crescent, 18% of the Moon is Illuminated
Oct 11
Waning Crescent
Oct 15
New
Oct 21
First Quarter
Oct 29
Full
Nov 6
Last Quarter

Hourly Weather History & Observations

Time (CDT) Temp. Dew Point Humidity Pressure Visibility Wind Dir Wind Speed Gust Speed Precip Events Conditions
12:53 AM 64.0 °F 39.9 °F 41% 30.16 in 10.0 mi East 5.8 mph - N/A   Overcast
1:53 AM 63.0 °F 41.0 °F 45% 30.15 in 10.0 mi East 6.9 mph - N/A   Overcast
2:53 AM 63.0 °F 43.0 °F 48% 30.14 in 10.0 mi East 8.1 mph - N/A   Overcast
3:29 AM 62.6 °F 42.8 °F 48% 30.15 in 10.0 mi East 6.9 mph - N/A   Overcast
3:53 AM 62.1 °F 41.0 °F 46% 30.14 in 10.0 mi East 6.9 mph - N/A   Overcast
4:53 AM 62.1 °F 41.0 °F 46% 30.14 in 10.0 mi East 8.1 mph - 0.00 in Rain Light Rain
5:53 AM 61.0 °F 43.0 °F 52% 30.15 in 10.0 mi ENE 6.9 mph - N/A   Overcast
6:53 AM 61.0 °F 42.1 °F 50% 30.16 in 10.0 mi East 6.9 mph - N/A   Overcast
7:53 AM 61.0 °F 43.0 °F 52% 30.16 in 10.0 mi East 8.1 mph - N/A   Overcast
8:53 AM 60.1 °F 45.0 °F 57% 30.18 in 10.0 mi ENE 8.1 mph - 0.00 in Rain Light Rain
9:53 AM 57.2 °F 50.0 °F 77% 30.20 in 5.0 mi ENE 9.2 mph - N/A Rain Light Rain
10:53 AM 57.0 °F 51.1 °F 81% 30.20 in 10.0 mi NE 9.2 mph - 0.06 in   Overcast
11:53 AM 59.0 °F 51.1 °F 75% 30.19 in 10.0 mi ENE 12.7 mph - N/A   Overcast
12:36 PM 60.8 °F 51.8 °F 72% 30.19 in 10.0 mi East 13.8 mph - N/A   Overcast
12:53 PM 62.1 °F 52.0 °F 70% 30.18 in 10.0 mi ENE 9.2 mph - N/A   Overcast
1:53 PM 68.0 °F 53.1 °F 59% 30.14 in 10.0 mi NE 11.5 mph - N/A   Partly Cloudy
2:53 PM 70.0 °F 55.0 °F 59% 30.11 in 10.0 mi ENE 11.5 mph - N/A   Partly Cloudy
3:53 PM 72.0 °F 55.9 °F 57% 30.10 in 10.0 mi East 10.4 mph - N/A   Clear
4:53 PM 73.4 °F 57.2 °F 57% 30.08 in 10.0 mi ENE 10.4 mph - N/A   Clear
5:53 PM 72.0 °F 57.0 °F 59% 30.08 in 10.0 mi ENE 10.4 mph - N/A   Clear
6:53 PM 69.1 °F 57.0 °F 65% 30.09 in 10.0 mi East 4.6 mph - N/A   Clear
7:53 PM 64.4 °F 57.2 °F 77% 30.10 in 10.0 mi Calm Calm - N/A   Clear
8:53 PM 64.0 °F 57.0 °F 78% 30.11 in 10.0 mi ENE 3.5 mph - N/A   Clear
9:53 PM 64.0 °F 57.0 °F 78% 30.13 in 10.0 mi NE 6.9 mph - N/A   Clear
10:53 PM 64.0 °F 57.9 °F 80% 30.14 in 10.0 mi NE 8.1 mph - N/A   Overcast
11:53 PM 64.0 °F 57.0 °F 78% 30.15 in 10.0 mi NE 8.1 mph - N/A   Overcast